TimePDT,TemperatureF,Dew PointF,Humidity,Sea Level PressureIn,VisibilityMPH,Wind Direction,Wind SpeedMPH,Gust SpeedMPH,PrecipitationIn,Events,Conditions,WindDirDegrees,DateUTC
12:15 AM,57.2,53.6,88,29.77,3.0,South,6.9,-,0.07,Rain,Heavy Rain,170,2012-10-31 07:15:00
12:22 AM,57.2,53.6,88,29.77,2.0,SSE,10.4,-,0.12,Rain,Heavy Rain,150,2012-10-31 07:22:00
12:34 AM,57.2,53.6,88,29.77,3.0,SSE,11.5,-,0.18,Rain,Rain,150,2012-10-31 07:34:00
12:53 AM,57.0,54.0,89,29.76,3.0,SSE,11.5,17.3,0.23,Rain,Rain,160,2012-10-31 07:53:00
12:58 AM,57.2,53.6,88,29.77,2.5,SSE,9.2,17.3,0.03,Rain,Rain,150,2012-10-31 07:58:00
1:16 AM,57.2,53.6,88,29.76,3.0,SSE,9.2,-,0.08,Rain,Light Rain,160,2012-10-31 08:16:00
1:49 AM,57.2,53.6,88,29.75,8.0,SSE,9.2,-,0.12,Rain,Light Rain,150,2012-10-31 08:49:00
1:53 AM,57.0,54.0,89,29.75,8.0,SSE,11.5,-,0.13,Rain,Light Rain,150,2012-10-31 08:53:00
2:21 AM,57.2,53.6,88,29.75,8.0,SSE,10.4,-,0.02,Rain,Light Rain,150,2012-10-31 09:21:00
2:53 AM,57.0,54.0,89,29.74,10.0,SSE,11.5,-,0.02,Rain,Light Rain,150,2012-10-31 09:53:00
3:02 AM,57.2,53.6,88,29.74,10.0,SSE,11.5,-,0.00,Rain,Light Rain,160,2012-10-31 10:02:00
3:11 AM,57.2,53.6,88,29.74,10.0,SSE,9.2,-,0.00,Rain,Light Rain,150,2012-10-31 10:11:00
3:43 AM,57.2,53.6,88,29.72,4.0,SSE,9.2,-,0.03,Rain,Light Rain,150,2012-10-31 10:43:00
3:53 AM,57.0,54.0,89,29.73,3.0,SSE,9.2,-,0.05,Rain,Light Rain,150,2012-10-31 10:53:00
4:40 AM,57.2,53.6,88,29.72,2.5,SSE,6.9,-,0.10,Rain,Rain,150,2012-10-31 11:40:00
4:53 AM,55.9,54.0,93,29.72,4.0,Variable,4.6,-,0.12,Rain,Light Rain,0,2012-10-31 11:53:00
5:07 AM,55.4,53.6,94,29.71,3.0,Variable,3.5,-,0.03,Rain,Light Rain,0,2012-10-31 12:07:00
5:25 AM,55.4,53.6,94,29.71,3.0,SSE,4.6,-,0.07,Rain,Rain,160,2012-10-31 12:25:00
5:53 AM,57.0,54.0,89,29.71,3.0,Variable,5.8,-,0.16,Rain,Heavy Rain,0,2012-10-31 12:53:00
6:01 AM,57.2,53.6,88,29.70,2.5,SE,4.6,-,0.04,Rain,Rain,130,2012-10-31 13:01:00
6:08 AM,57.2,53.6,88,29.69,3.0,ESE,4.6,-,0.07,Rain,Rain,120,2012-10-31 13:08:00
6:53 AM,55.9,54.0,93,29.68,7.0,ESE,6.9,-,0.18,Rain,Light Rain,110,2012-10-31 13:53:00
7:53 AM,55.0,53.1,93,29.67,9.0,Variable,3.5,-,0.01,Rain,Light Rain,0,2012-10-31 14:53:00
8:53 AM,55.0,53.1,93,29.66,10.0,ESE,9.2,-,0.03,Rain,Light Rain,110,2012-10-31 15:53:00
9:53 AM,55.9,53.1,90,29.67,7.0,Calm,Calm,-,0.01,Rain,Light Rain,0,2012-10-31 16:53:00
10:53 AM,57.0,53.1,87,29.65,7.0,SE,4.6,-,0.06,Rain,Light Rain,130,2012-10-31 17:53:00
11:53 AM,57.2,53.6,88,29.65,10.0,ESE,6.9,-,N/A,Rain,Light Rain,120,2012-10-31 18:53:00
12:53 PM,57.9,54.0,87,29.63,10.0,Variable,3.5,-,0.02,Rain,Light Rain,0,2012-10-31 19:53:00
1:53 PM,59.0,54.0,83,29.63,8.0,South,8.1,-,0.03,Rain,Light Rain,170,2012-10-31 20:53:00
2:53 PM,57.9,54.0,87,29.64,10.0,SSE,11.5,-,0.01,Rain,Light Rain,160,2012-10-31 21:53:00
3:21 PM,57.2,53.6,88,29.65,5.0,South,11.5,19.6,0.04,Rain,Light Rain,170,2012-10-31 22:21:00
3:53 PM,57.9,54.0,87,29.66,8.0,South,15.0,23.0,0.06,Rain,Light Rain,170,2012-10-31 22:53:00
4:03 PM,57.2,53.6,88,29.66,10.0,South,16.1,23.0,0.00,Rain,Light Rain,170,2012-10-31 23:03:00
4:53 PM,57.9,54.0,87,29.68,10.0,South,13.8,-,0.02,,Overcast,170,2012-10-31 23:53:00
5:53 PM,57.0,53.1,87,29.69,10.0,South,10.4,-,0.00,,Overcast,170,2012-11-01 00:53:00
6:53 PM,55.9,51.1,84,29.71,10.0,SSE,10.4,-,0.00,,Overcast,160,2012-11-01 01:53:00
7:53 PM,55.9,50.0,80,29.70,10.0,SSE,9.2,-,N/A,,Clear,160,2012-11-01 02:53:00
8:53 PM,55.9,50.0,80,29.71,10.0,SSE,3.5,-,N/A,,Overcast,160,2012-11-01 03:53:00
9:53 PM,55.9,48.9,77,29.73,10.0,Calm,Calm,-,0.00,,Overcast,0,2012-11-01 04:53:00
10:53 PM,57.0,48.9,74,29.73,10.0,SSE,5.8,-,N/A,,Overcast,150,2012-11-01 05:53:00
11:53 PM,55.9,48.0,75,29.73,10.0,SSE,8.1,-,0.01,,Overcast,160,2012-11-01 06:53:00